FW1892 Weather Reports


Display with metric or nautical units.
time (UTC)temp
F
wind
direction
speed
MPH
gust
MPH
rain 1hr
in
rain 24hr
in
rain mn
in
humidity
%
barometer
mb
20260905230202 67 115 0.0 0.0 0.00 0.08 0.08 87 1010.2
20260905225855 66 154 0.0 0.0 0.00 0.10 0.10 90 1010.9
20260905225345 66 133 0.0 0.0 0.05 0.10 0.10 90 1011.0
20260905225202 67 115 0.0 0.0 0.00 0.08 0.08 86 1010.2
20260905224840 66 143 0.0 0.0 0.05 0.10 0.10 88 1011.1
20260905224335 66 149 0.0 0.0 0.00 0.09 0.09 88 1010.9
20260905224202 67 115 0.0 0.0 0.00 0.08 0.08 86 1010.1
20260905223830 66 132 0.0 0.0 0.00 0.09 0.09 88 1010.8
20260905223328 66 153 0.0 0.0 0.00 0.09 0.09 87 1010.8
20260905223202 67 115 0.0 0.0 0.00 0.08 0.08 86 1010.0
20260905222823 67 138 0.0 0.0 0.00 0.09 0.09 87 1010.9
20260905222322 67 143 0.0 0.0 0.00 0.09 0.09 86 1010.7
20260905222223 67 115 0.0 0.0 0.00 0.08 0.08 86 1009.9
20260905221818 67 171 0.0 0.0 0.00 0.09 0.09 86 1010.8
20260905221315 67 141 0.0 0.0 0.00 0.09 0.09 86 1010.6
20260905221202 67 115 0.0 0.0 0.00 0.08 0.08 85 1010.0
20260905220810 67 149 0.0 0.0 0.00 0.09 0.09 86 1010.6
20260905220306 67 167 0.0 0.0 0.00 0.09 0.09 86 1010.6
20260905220202 67 115 0.0 0.0 0.00 0.08 0.08 85 1009.8
20260905215805 67 143 0.0 0.0 0.00 0.09 0.09 85 1010.3
20260905215301 67 126 0.0 0.0 0.00 0.09 0.09 85 1010.3
20260905215202 67 112 0.0 0.0 0.00 0.08 0.08 84 1009.7
20260905214756 67 100 0.0 0.0 0.00 0.09 0.09 84 1010.5
20260905214252 67 95 0.0 0.0 0.00 0.09 0.09 84 1010.2
20260905214202 67 137 0.0 0.0 0.00 0.08 0.08 84 1009.5
20260905213747 67 143 0.0 0.0 0.00 0.09 0.09 84 1010.3
20260905213243 67 147 0.0 1.0 0.00 0.09 0.09 84 1010.4
20260905213202 68 138 0.0 0.0 0.00 0.08 0.08 84 1009.4
20260905212738 67 151 2.0 3.0 0.00 0.09 0.09 83 1010.2
20260905212237 67 60 1.0 2.0 0.00 0.09 0.09 83 1010.1
20260905212202 68 211 0.0 2.0 0.00 0.08 0.08 84 1009.3
20260905211737 68 134 1.0 4.0 0.00 0.09 0.09 82 1010.1
20260905211232 68 22 2.0 2.0 0.00 0.09 0.09 82 1010.1
20260905211202 68 78 0.0 8.0 0.00 0.08 0.08 83 1009.3
20260905210729 69 42 3.0 3.0 0.00 0.09 0.09 80 1010.1
20260905210228 69 76 1.0 6.0 0.00 0.09 0.09 80 1009.9
20260905210202 68 113 2.0 9.0 0.00 0.08 0.08 84 1009.2
20260905205727 69 53 2.0 3.0 0.00 0.09 0.09 81 1009.9
20260905205222 69 150 1.0 4.0 0.00 0.09 0.09 82 1009.7
20260905205202 68 101 0.0 1.0 0.00 0.08 0.08 84 1009.1
20260905204722 68 197 1.0 4.0 0.00 0.09 0.09 83 1009.8
20260905204218 68 143 1.0 2.0 0.00 0.09 0.09 84 1010.0
20260905204202 68 132 0.0 4.0 0.00 0.08 0.08 85 1009.0
20260905203717 68 107 4.0 6.0 0.00 0.09 0.09 84 1009.8
20260905203213 68 142 2.0 9.0 0.00 0.09 0.09 84 1009.9
20260905202709 68 133 0.0 3.0 0.00 0.09 0.09 86 1009.8
20260905202403 69 109 1.0 11.0 0.08 0.08 0.08 84 1009.3
20260905202203 68 172 1.0 4.0 0.00 0.09 0.09 88 1009.8
20260905201659 67 160 1.0 6.0 0.00 0.09 0.09 87 1009.8
20260905201353 70 83 0.0 4.0 0.08 0.08 0.08 81 1009.3
20260905201158 67 160 3.0 4.0 0.00 0.09 0.09 87 1009.8
20260905200702 71 134 0.0 7.0 0.08 0.08 0.08 79 1008.8
20260905200654 68 105 1.0 2.0 0.00 0.09 0.09 88 1009.6
20260905200203 72 93 1.0 3.0 0.08 0.08 0.08 77 1008.6
20260905200149 68 68 1.0 3.0 0.00 0.09 0.09 89 1009.7
20260905195703 73 116 0.0 0.0 0.08 0.08 0.08 75 1008.6
20260905195648 67 184 1.0 1.0 0.07 0.09 0.09 87 1009.4
20260905195203 73 116 0.0 0.0 0.07 0.07 0.07 73 1008.5
20260905195143 68 144 0.0 1.0 0.54 0.09 0.09 84 1009.3
20260905194638 71 173 1.0 2.0 0.42 0.07 0.07 76 1009.6
20260905194203 75 21 2.0 14.0 0.00 0.00 0.00 65 1008.5
20260905194137 75 197 4.0 7.0 0.00 0.00 0.00 62 1009.3
20260905193703 76 323 0.0 3.0 0.00 0.00 0.00 61 1008.3
20260905193633 76 41 1.0 3.0 0.00 0.00 0.00 57 1009.1
20260905193203 76 316 0.0 0.0 0.00 0.00 0.00 61 1008.2
20260905193133 76 217 1.0 2.0 0.00 0.00 0.00 56 1009.1
20260905192703 76 306 0.0 0.0 0.00 0.00 0.00 61 1008.2
20260905192628 76 193 1.0 3.0 0.00 0.00 0.00 57 1009.1
20260905192203 77 27 0.0 0.0 0.00 0.00 0.00 60 1008.1
20260905192125 76 189 1.0 3.0 0.00 0.00 0.00 57 1009.0
20260905191703 77 283 0.0 0.0 0.00 0.00 0.00 61 1008.1
20260905191624 76 251 2.0 4.0 0.00 0.00 0.00 58 1009.0
20260905191203 77 349 0.0 0.0 0.00 0.00 0.00 60 1008.2
20260905191122 77 249 2.0 2.0 0.00 0.00 0.00 56 1008.9
20260905190703 77 147 0.0 0.0 0.00 0.00 0.00 60 1008.2
20260905190621 77 232 1.0 3.0 0.00 0.00 0.00 55 1009.1
20260905190203 77 117 0.0 1.0 0.00 0.00 0.00 61 1008.2
20260905190121 78 267 1.0 2.0 0.00 0.00 0.00 55 1009.2
20260905185703 77 15 0.0 3.0 0.00 0.00 0.00 61 1008.1
20260905185619 77 167 3.0 6.0 0.00 0.00 0.00 56 1008.9
20260905185202 77 343 0.0 1.0 0.00 0.00 0.00 62 1008.2
20260905185114 77 18 1.0 3.0 0.00 0.00 0.00 55 1008.9
20260905184703 76 312 0.0 0.0 0.00 0.00 0.00 63 1008.1
20260905184609 77 302 1.0 2.0 0.00 0.00 0.00 57 1008.8
20260905184108 76 257 4.0 6.0 0.00 0.00 0.00 57 1009.0
20260905183607 75 320 2.0 6.0 0.00 0.00 0.00 58 1009.0
20260905183102 75 16 2.0 3.0 0.00 0.00 0.00 57 1008.9
20260905182703 75 126 1.0 12.0 0.00 0.00 0.00 63 1008.1
20260905182602 76 165 3.0 6.0 0.00 0.00 0.00 57 1008.8
20260905182203 75 358 0.0 8.0 0.00 0.00 0.00 64 1008.1
20260905182056 75 351 2.0 7.0 0.00 0.00 0.00 60 1009.1
20260905181704 75 146 0.0 0.0 0.00 0.00 0.00 64 1008.1
20260905181551 75 138 3.0 4.0 0.00 0.00 0.00 60 1009.1
20260905181203 75 96 0.0 0.0 0.00 0.00 0.00 64 1008.1
20260905181050 75 152 1.0 3.0 0.00 0.00 0.00 59 1008.9
20260905180703 75 264 0.0 3.0 0.00 0.00 0.00 63 1008.1
20260905180545 75 128 1.0 3.0 0.00 0.00 0.00 60 1008.9
20260905180203 76 59 0.0 0.0 0.00 0.00 0.00 64 1008.2
20260905180041 76 118 0.0 2.0 0.00 0.00 0.00 60 1009.0
20260905175539 76 83 3.0 4.0 0.00 0.00 0.00 58 1009.0
20260905175204 76 345 0.0 5.0 0.00 0.00 0.00 63 1008.1
20260905175036 76 270 2.0 3.0 0.00 0.00 0.00 60 1008.9
20260905174703 76 353 0.0 2.0 0.00 0.00 0.00 63 1008.1
20260905174531 77 78 2.0 4.0 0.00 0.00 0.00 57 1008.9
20260905174026 78 93 1.0 3.0 0.00 0.00 0.00 56 1009.1
20260905173703 76 355 0.0 1.0 0.00 0.00 0.00 64 1008.1
20260905173523 77 325 1.0 2.0 0.00 0.00 0.00 58 1009.2
20260905173018 76 52 3.0 4.0 0.00 0.00 0.00 60 1008.9
20260905172703 76 136 0.0 1.0 0.00 0.00 0.00 65 1007.9
20260905172516 75 146 0.0 3.0 0.00 0.00 0.00 59 1008.9
20260905172203 76 106 1.0 9.0 0.00 0.00 0.00 64 1008.0
20260905172012 75 176 2.0 3.0 0.00 0.00 0.00 61 1008.6
20260905171703 76 120 0.0 2.0 0.00 0.00 0.00 63 1008.0
20260905171508 76 142 1.0 6.0 0.00 0.00 0.00 58 1008.8
20260905171203 76 122 0.0 2.0 0.00 0.00 0.00 63 1008.0
20260905171004 77 21 2.0 6.0 0.00 0.00 0.00 56 1008.7
20260905170702 76 94 0.0 1.0 0.00 0.00 0.00 64 1007.9
20260905170500 77 111 1.0 4.0 0.00 0.00 0.00 55 1008.6
20260905165959 76 142 0.0 4.0 0.00 0.00 0.00 56 1008.9
20260905165703 75 68 0.0 5.0 0.00 0.00 0.00 65 1008.1
20260905165455 75 63 5.0 7.0 0.00 0.00 0.00 59 1008.9
20260905165203 75 354 0.0 3.0 0.00 0.00 0.00 64 1008.1
20260905164950 75 92 2.0 3.0 0.00 0.00 0.00 57 1008.9
20260905164703 75 2 0.0 0.0 0.00 0.00 0.00 65 1008.0
20260905164444 76 147 0.0 4.0 0.00 0.00 0.00 58 1008.8
20260905164203 74 336 1.0 9.0 0.00 0.00 0.00 67 1008.0
20260905163939 75 279 3.0 7.0 0.00 0.00 0.00 59 1008.8
20260905163436 74 94 1.0 2.0 0.00 0.00 0.00 60 1009.1
20260905163203 73 48 0.0 0.0 0.00 0.00 0.00 68 1008.1
20260905162931 73 105 1.0 2.0 0.00 0.00 0.00 63 1009.2
20260905162426 73 170 2.0 4.0 0.00 0.00 0.00 62 1009.2
20260905162203 73 336 0.0 3.0 0.00 0.00 0.00 67 1008.2
20260905161921 74 62 2.0 6.0 0.00 0.00 0.00 61 1009.2
20260905161703 74 225 0.0 7.0 0.00 0.00 0.00 67 1008.2
20260905161420 75 199 2.0 4.0 0.00 0.00 0.00 59 1009.0
20260905161203 74 136 0.0 1.0 0.00 0.00 0.00 68 1008.2
20260905160918 74 78 1.0 9.0 0.00 0.00 0.00 61 1008.9
20260905160703 73 352 1.0 7.0 0.00 0.00 0.00 70 1008.2
20260905160412 74 151 0.0 4.0 0.00 0.00 0.00 64 1009.1
20260905160203 73 325 0.0 1.0 0.00 0.00 0.00 72 1008.3
20260905155906 74 237 4.0 6.0 0.00 0.00 0.00 64 1009.1
20260905155703 72 357 0.0 0.0 0.00 0.00 0.00 74 1008.3
20260905155401 73 281 2.0 3.0 0.00 0.00 0.00 67 1009.0
20260905154900 73 29 2.0 3.0 0.00 0.00 0.00 67 1009.2
20260905154703 72 322 0.0 0.0 0.00 0.00 0.00 76 1008.3
20260905154355 72 233 2.0 3.0 0.00 0.00 0.00 71 1009.2
20260905154203 71 20 0.0 0.0 0.00 0.00 0.00 77 1008.4
20260905153851 71 302 2.0 3.0 0.00 0.00 0.00 72 1009.3
20260905153347 71 123 0.0 2.0 0.00 0.00 0.00 74 1009.2
20260905152847 71 266 2.0 3.0 0.00 0.00 0.00 74 1009.2
20260905152703 71 316 0.0 0.0 0.00 0.00 0.00 78 1008.4
20260905152345 70 249 2.0 4.0 0.00 0.00 0.00 74 1009.2
20260905152203 71 296 0.0 0.0 0.00 0.00 0.00 78 1008.5
20260905151841 69 82 2.0 4.0 0.00 0.00 0.00 77 1009.2
20260905151703 71 316 0.0 0.0 0.00 0.00 0.00 77 1008.4
20260905151336 70 269 2.0 3.0 0.00 0.00 0.00 77 1009.2
20260905151203 71 310 0.0 0.0 0.00 0.00 0.00 76 1008.5
20260905150830 70 289 2.0 3.0 0.00 0.00 0.00 75 1009.3
20260905150703 71 301 0.0 1.0 0.00 0.00 0.00 75 1008.5
20260905150325 71 267 2.0 3.0 0.00 0.00 0.00 71 1009.2
20260905145822 72 122 1.0 2.0 0.00 0.00 0.00 69 1009.3
20260905145317 72 356 1.0 3.0 0.00 0.00 0.00 69 1009.3
20260905145203 71 38 0.0 1.0 0.00 0.00 0.00 75 1008.4
20260905144815 72 328 1.0 6.0 0.00 0.00 0.00 69 1009.2
20260905144312 72 74 2.0 4.0 0.00 0.00 0.00 69 1009.1
20260905144203 71 325 0.0 0.0 0.00 0.00 0.00 77 1008.4
20260905143810 71 261 1.0 2.0 0.00 0.00 0.00 72 1009.1
20260905143703 70 346 0.0 0.0 0.00 0.00 0.00 77 1008.4
20260905143305 71 16 0.0 1.0 0.00 0.00 0.00 70 1009.2
20260905143203 70 340 0.0 0.0 0.00 0.00 0.00 77 1008.4
20260905142804 71 93 1.0 2.0 0.00 0.00 0.00 70 1009.4
20260905142257 71 128 1.0 2.0 0.00 0.00 0.00 70 1009.3
20260905142203 70 30 0.0 0.0 0.00 0.00 0.00 79 1008.5
20260905141754 71 269 2.0 3.0 0.00 0.00 0.00 70 1009.3
20260905141704 69 318 0.0 0.0 0.00 0.00 0.00 80 1008.5
20260905141249 71 126 1.0 2.0 0.00 0.00 0.00 72 1009.4
20260905141203 69 88 0.0 0.0 0.00 0.00 0.00 81 1008.5
20260905140744 70 322 2.0 2.0 0.00 0.00 0.00 73 1009.4
20260905140703 69 6 0.0 0.0 0.00 0.00 0.00 82 1008.5
20260905140239 69 236 2.0 3.0 0.00 0.00 0.00 75 1009.2
20260905140203 68 284 0.0 0.0 0.00 0.00 0.00 83 1008.4
20260905135738 69 204 0.0 2.0 0.00 0.00 0.00 75 1009.3
20260905135703 68 289 0.0 0.0 0.00 0.00 0.00 83 1008.5
20260905135234 69 189 0.0 1.0 0.00 0.00 0.00 75 1009.2
20260905135203 68 57 0.0 1.0 0.00 0.00 0.00 84 1008.5
20260905134733 69 168 2.0 3.0 0.00 0.00 0.00 75 1009.1
20260905134703 67 332 0.0 1.0 0.00 0.00 0.00 85 1008.4
20260905134232 69 201 1.0 2.0 0.00 0.00 0.00 77 1009.2
20260905134204 67 94 0.0 0.0 0.00 0.00 0.00 86 1008.4
20260905133727 69 119 0.0 2.0 0.00 0.00 0.00 78 1009.2
20260905133703 67 298 0.0 0.0 0.00 0.00 0.00 87 1008.3
20260905133222 68 299 0.0 3.0 0.00 0.00 0.00 77 1008.9
20260905133203 66 305 0.0 0.0 0.00 0.00 0.00 88 1008.3
20260905132721 68 340 1.0 1.0 0.00 0.00 0.00 79 1008.9
20260905132217 68 137 0.0 2.0 0.00 0.00 0.00 79 1009.0
20260905132203 65 29 0.0 0.0 0.00 0.00 0.00 89 1008.1
20260905131713 67 132 1.0 2.0 0.00 0.00 0.00 80 1008.7
20260905131208 67 88 1.0 2.0 0.00 0.00 0.00 81 1008.8
20260905131203 65 63 0.0 0.0 0.00 0.00 0.00 90 1008.0
20260905130708 66 296 3.0 3.0 0.00 0.00 0.00 82 1008.8
20260905130704 64 329 0.0 0.0 0.00 0.00 0.00 90 1008.1
20260905130203 64 327 0.0 0.0 0.00 0.00 0.00 90 1008.0
20260905125703 64 340 0.0 0.0 0.00 0.00 0.00 91 1008.0
20260905125701 65 69 0.0 1.0 0.00 0.00 0.00 83 1008.8
20260905125157 65 210 1.0 2.0 0.00 0.00 0.00 83 1008.6
20260905124653 65 101 0.0 2.0 0.00 0.00 0.00 84 1008.6
20260905124149 65 341 2.0 2.0 0.00 0.00 0.00 84 1008.9
20260905123703 63 8 0.0 0.0 0.00 0.00 0.00 92 1007.9
20260905123644 65 125 0.0 3.0 0.00 0.00 0.00 84 1008.6
20260905123203 63 351 0.0 0.0 0.00 0.00 0.00 92 1007.8
20260905123141 65 139 0.0 1.0 0.00 0.00 0.00 85 1008.6
20260905122703 63 302 0.0 0.0 0.00 0.00 0.00 92 1007.7
20260905122641 64 108 0.0 1.0 0.00 0.00 0.00 85 1008.4
20260905122136 64 111 1.0 2.0 0.00 0.00 0.00 85 1008.3
20260905121630 64 17 1.0 1.0 0.00 0.00 0.00 86 1008.4
20260905121204 62 331 0.0 0.0 0.00 0.00 0.00 92 1007.6
20260905121126 64 336 1.0 2.0 0.00 0.00 0.00 86 1008.2
20260905120703 62 7 0.0 0.0 0.00 0.00 0.00 92 1007.6
20260905120625 64 82 0.0 0.0 0.00 0.00 0.00 87 1008.4
20260905120120 64 288 0.0 0.0 0.00 0.00 0.00 88 1008.4
20260905115703 62 345 0.0 0.0 0.00 0.00 0.00 92 1007.5
20260905115619 63 121 0.0 2.0 0.00 0.00 0.00 89 1008.2
20260905115203 62 311 0.0 0.0 0.00 0.00 0.00 92 1007.5
20260905115114 63 86 0.0 2.0 0.00 0.00 0.00 91 1008.1
20260905114703 62 20 0.0 0.0 0.00 0.00 0.00 92 1007.4
20260905114614 63 16 0.0 0.0 0.00 0.00 0.00 92 1008.2
20260905114203 61 341 0.0 0.0 0.00 0.00 0.00 92 1007.5
20260905114113 62 122 0.0 0.0 0.00 0.00 0.00 93 1008.1
20260905113703 61 341 0.0 0.0 0.00 0.00 0.00 92 1007.5
20260905113608 62 130 0.0 0.0 0.00 0.00 0.00 93 1008.1
20260905113203 61 342 0.0 0.0 0.00 0.00 0.00 92 1007.4
20260905113058 62 130 0.0 0.0 0.00 0.00 0.00 94 1008.1
20260905112703 61 342 0.0 0.0 0.00 0.00 0.00 92 1007.4
20260905112552 62 107 0.0 0.0 0.00 0.00 0.00 94 1008.0
20260905112203 61 342 0.0 0.0 0.00 0.00 0.00 92 1007.4
20260905112048 61 107 0.0 0.0 0.00 0.00 0.00 94 1008.1
20260905111703 61 342 0.0 0.0 0.00 0.00 0.00 92 1007.3
20260905111543 61 107 0.0 0.0 0.00 0.00 0.00 95 1008.0
20260905111203 60 342 0.0 0.0 0.00 0.00 0.00 91 1007.4
20260905111042 61 107 0.0 0.0 0.00 0.00 0.00 95 1008.1
20260905110703 60 342 0.0 0.0 0.00 0.00 0.00 91 1007.4
20260905110541 60 107 0.0 0.0 0.00 0.00 0.00 95 1008.1
20260905110203 60 342 0.0 0.0 0.00 0.00 0.00 91 1007.3
20260905110036 60 104 0.0 0.0 0.00 0.00 0.00 95 1007.9
20260905105536 60 104 0.0 0.0 0.00 0.00 0.00 95 1007.9
20260905105203 60 342 0.0 0.0 0.00 0.00 0.00 91 1007.2
20260905105035 60 104 0.0 0.0 0.00 0.00 0.00 95 1007.9
20260905104703 59 342 0.0 0.0 0.00 0.00 0.00 91 1007.2
20260905104532 59 118 0.0 0.0 0.00 0.00 0.00 95 1007.9
20260905104203 59 342 0.0 0.0 0.00 0.00 0.00 90 1007.2
20260905104031 59 180 0.0 0.0 0.00 0.00 0.00 95 1007.9
20260905103704 59 342 0.0 0.0 0.00 0.00 0.00 90 1007.2
20260905103526 59 118 0.0 0.0 0.00 0.00 0.00 95 1008.0
20260905103203 59 342 0.0 0.0 0.00 0.00 0.00 90 1007.2
20260905103023 59 118 0.0 0.0 0.00 0.00 0.00 95 1008.0
20260905102518 58 120 0.0 0.0 0.00 0.00 0.00 95 1007.8
20260905102204 59 342 0.0 0.0 0.00 0.00 0.00 90 1007.0
20260905102014 58 120 0.0 0.0 0.00 0.00 0.00 94 1007.7
20260905101703 59 342 0.0 0.0 0.00 0.00 0.00 90 1007.0
20260905101513 58 115 0.0 0.0 0.00 0.00 0.00 94 1007.7
20260905101203 59 342 0.0 0.0 0.00 0.00 0.00 89 1007.0
20260905101011 58 166 0.0 0.0 0.00 0.00 0.00 94 1007.7
20260905100703 59 342 0.0 0.0 0.00 0.00 0.00 89 1007.0
20260905100508 58 130 0.0 0.0 0.00 0.00 0.00 94 1007.9
20260905100204 59 342 0.0 0.0 0.00 0.00 0.00 89 1007.0
20260905100007 58 129 0.0 0.0 0.00 0.00 0.00 94 1007.8
20260905095703 60 342 0.0 0.0 0.00 0.00 0.00 89 1007.0
20260905095502 58 105 0.0 0.0 0.00 0.00 0.00 94 1007.7
20260905095203 60 342 0.0 0.0 0.00 0.00 0.00 89 1007.0
20260905094957 59 105 0.0 0.0 0.00 0.00 0.00 94 1007.6
20260905094703 60 342 0.0 0.0 0.00 0.00 0.00 89 1006.9
20260905094452 59 125 0.0 0.0 0.00 0.00 0.00 93 1007.6
20260905094204 60 342 0.0 0.0 0.00 0.00 0.00 89 1006.8
20260905093950 59 164 0.0 0.0 0.00 0.00 0.00 94 1007.6
20260905093703 60 342 0.0 0.0 0.00 0.00 0.00 89 1006.9
20260905093446 59 103 0.0 0.0 0.00 0.00 0.00 93 1007.5
20260905093203 60 342 0.0 0.0 0.00 0.00 0.00 89 1006.9
20260905092942 59 94 0.0 0.0 0.00 0.00 0.00 93 1007.6
20260905092437 59 122 0.0 0.0 0.00 0.00 0.00 93 1007.8
20260905092203 60 342 0.0 0.0 0.00 0.00 0.00 89 1006.8
20260905091932 59 133 0.0 0.0 0.00 0.00 0.00 93 1007.5
20260905091703 61 342 0.0 0.0 0.00 0.00 0.00 89 1006.7
20260905091432 59 109 0.0 0.0 0.00 0.00 0.00 92 1007.6
20260905091203 61 342 0.0 0.0 0.00 0.00 0.00 89 1006.7
20260905090932 60 109 0.0 0.0 0.00 0.00 0.00 92 1007.4
20260905090428 60 98 0.0 0.0 0.00 0.00 0.00 92 1007.6
20260905090203 61 342 0.0 0.0 0.00 0.00 0.00 88 1006.7
20260905085927 60 168 0.0 0.0 0.00 0.00 0.00 92 1007.4
20260905085703 61 342 0.0 0.0 0.00 0.00 0.00 88 1006.7
20260905085426 60 123 0.0 0.0 0.00 0.00 0.00 92 1007.4
20260905084922 60 115 0.0 0.0 0.00 0.00 0.00 91 1007.4
20260905084703 61 342 0.0 0.0 0.00 0.00 0.00 88 1006.6
20260905084421 60 109 0.0 0.0 0.00 0.00 0.00 91 1007.4
20260905084203 61 342 0.0 0.0 0.00 0.00 0.00 88 1006.5
20260905083916 60 129 0.0 0.0 0.00 0.00 0.00 91 1007.1
20260905083703 61 342 0.0 0.0 0.00 0.00 0.00 88 1006.6
20260905083412 60 116 0.0 0.0 0.00 0.00 0.00 91 1007.4
20260905083203 61 342 0.0 0.0 0.00 0.00 0.00 88 1006.5
20260905082908 60 116 0.0 0.0 0.00 0.00 0.00 90 1007.4
20260905082403 60 137 0.0 0.0 0.00 0.00 0.00 90 1007.4
20260905081858 61 114 0.0 0.0 0.00 0.00 0.00 89 1007.4
20260905081704 62 342 0.0 0.0 0.00 0.00 0.00 88 1006.5
20260905081359 61 111 0.0 0.0 0.00 0.00 0.00 89 1007.4
20260905080857 62 104 0.0 0.0 0.00 0.00 0.00 88 1007.2
20260905080352 62 93 0.0 0.0 0.00 0.00 0.00 88 1007.2
20260905080203 62 342 0.0 0.0 0.00 0.00 0.00 88 1006.5
20260905075851 62 103 0.0 0.0 0.00 0.00 0.00 88 1007.4
20260905075703 62 342 0.0 0.0 0.00 0.00 0.00 88 1006.5
20260905075345 61 99 1.0 2.0 0.00 0.00 0.00 89 1007.3
20260905075203 62 321 0.0 0.0 0.00 0.00 0.00 87 1006.5
20260905074844 61 121 0.0 0.0 0.00 0.00 0.00 89 1007.3
20260905074703 62 306 0.0 0.0 0.00 0.00 0.00 87 1006.5
20260905074341 61 113 0.0 0.0 0.00 0.00 0.00 89 1007.5
20260905074203 62 306 0.0 0.0 0.00 0.00 0.00 87 1006.6
20260905073836 61 126 0.0 0.0 0.00 0.00 0.00 88 1007.3
20260905073703 62 306 0.0 0.0 0.00 0.00 0.00 87 1006.7
20260905073331 62 115 0.0 0.0 0.00 0.00 0.00 87 1007.6
20260905073203 62 306 0.0 0.0 0.00 0.00 0.00 87 1006.7
20260905072825 62 109 0.0 0.0 0.00 0.00 0.00 87 1007.5
20260905072703 62 306 0.0 0.0 0.00 0.00 0.00 87 1006.7
20260905072320 62 119 0.0 0.0 0.00 0.00 0.00 86 1007.4
20260905072203 62 306 0.0 0.0 0.00 0.00 0.00 87 1006.7
20260905071817 62 114 0.0 0.0 0.00 0.00 0.00 85 1007.5
20260905071703 62 306 0.0 0.0 0.00 0.00 0.00 88 1006.7
20260905071313 63 126 0.0 0.0 0.00 0.00 0.00 85 1007.5
20260905071203 62 306 0.0 0.0 0.00 0.00 0.00 88 1006.7
20260905070808 63 99 0.0 0.0 0.00 0.00 0.00 84 1007.4
20260905070704 62 306 0.0 0.0 0.00 0.00 0.00 88 1006.8
20260905070304 63 119 0.0 0.0 0.00 0.00 0.00 84 1007.6
20260905070203 62 306 0.0 0.0 0.00 0.00 0.00 88 1006.9
20260905065802 63 71 0.0 1.0 0.00 0.00 0.00 85 1007.6
20260905065704 62 298 0.0 0.0 0.00 0.00 0.00 88 1006.9
20260905065256 62 112 0.0 1.0 0.00 0.00 0.00 87 1007.9
20260905065203 62 58 0.0 0.0 0.00 0.00 0.00 87 1007.0
20260905064752 61 119 0.0 0.0 0.00 0.00 0.00 89 1007.8
20260905064703 62 28 0.0 0.0 0.00 0.00 0.00 87 1006.9
20260905064247 60 312 0.0 2.0 0.00 0.00 0.00 90 1007.8
20260905064204 62 14 0.0 0.0 0.00 0.00 0.00 87 1006.9
20260905063745 60 117 0.0 0.0 0.00 0.00 0.00 90 1007.7
20260905063704 62 132 0.0 0.0 0.00 0.00 0.00 86 1006.9
20260905063242 60 129 0.0 0.0 0.00 0.00 0.00 90 1007.9
20260905063203 62 100 0.0 0.0 0.00 0.00 0.00 86 1006.9
20260905062737 61 167 0.0 0.0 0.00 0.00 0.00 89 1007.9
20260905062704 62 100 0.0 0.0 0.00 0.00 0.00 86 1007.0
20260905062231 61 265 0.0 0.0 0.00 0.00 0.00 89 1007.9
20260905062204 62 100 0.0 0.0 0.00 0.00 0.00 86 1007.0
20260905061725 61 117 0.0 0.0 0.00 0.00 0.00 88 1007.9
20260905061221 61 85 0.0 0.0 0.00 0.00 0.00 88 1008.0
20260905060720 61 129 0.0 0.0 0.00 0.00 0.00 87 1008.1
20260905060703 62 100 0.0 0.0 0.00 0.00 0.00 86 1007.1
20260905060217 62 133 0.0 0.0 0.00 0.00 0.00 87 1008.1
20260905060203 62 100 0.0 0.0 0.00 0.00 0.00 86 1007.3
20260905055715 62 125 0.0 0.0 0.00 0.00 0.00 86 1008.2
20260905055703 63 100 0.0 0.0 0.00 0.00 0.00 86 1007.3
20260905055211 62 110 0.0 0.0 0.00 0.00 0.00 86 1008.1
20260905055204 63 100 0.0 0.0 0.00 0.00 0.00 86 1007.2
20260905054706 62 120 0.0 0.0 0.00 0.00 0.00 86 1008.0
20260905054704 63 73 0.0 0.0 0.00 0.00 0.00 86 1007.1
20260905054204 63 215 0.0 0.0 0.00 0.00 0.00 86 1007.1
20260905054202 62 95 0.0 0.0 0.00 0.00 0.00 86 1008.0
20260905053656 62 114 0.0 0.0 0.00 0.00 0.00 86 1008.3
20260905053151 63 127 0.0 0.0 0.00 0.00 0.00 85 1007.8
20260905052703 63 232 0.0 0.0 0.00 0.00 0.00 86 1007.2
20260905052650 63 123 0.0 0.0 0.00 0.00 0.00 85 1007.8
20260905052203 63 232 0.0 0.0 0.00 0.00 0.00 85 1007.1
20260905052145 63 142 0.0 0.0 0.00 0.00 0.00 85 1008.0
20260905051703 63 232 0.0 0.0 0.00 0.00 0.00 85 1007.3
20260905051640 63 133 0.0 0.0 0.00 0.00 0.00 85 1008.0
20260905051137 63 165 0.0 0.0 0.00 0.00 0.00 85 1008.0
20260905050703 63 242 0.0 1.0 0.00 0.00 0.00 85 1007.2
20260905050633 63 148 0.0 0.0 0.00 0.00 0.00 85 1007.9
20260905050130 63 148 0.0 1.0 0.00 0.00 0.00 86 1008.1
20260905045703 63 303 0.0 0.0 0.00 0.00 0.00 84 1007.2
20260905045624 62 136 0.0 0.0 0.00 0.00 0.00 87 1008.0
20260905045203 63 285 0.0 0.0 0.00 0.00 0.00 84 1007.4
20260905045119 62 94 0.0 1.0 0.00 0.00 0.00 88 1008.3
20260905044703 63 323 0.0 0.0 0.00 0.00 0.00 84 1007.4
20260905044619 62 132 0.0 1.0 0.00 0.00 0.00 88 1008.2
20260905044114 62 177 0.0 0.0 0.00 0.00 0.00 87 1008.0
20260905043703 64 323 0.0 0.0 0.00 0.00 0.00 83 1007.1
20260905043613 62 124 0.0 0.0 0.00 0.00 0.00 87 1008.0
20260905043204 64 323 0.0 0.0 0.00 0.00 0.00 83 1007.1
20260905043108 62 122 0.0 0.0 0.00 0.00 0.00 87 1008.0
20260905042606 62 131 0.0 0.0 0.00 0.00 0.00 87 1008.0
20260905042102 62 123 0.0 0.0 0.00 0.00 0.00 86 1007.9
20260905041704 64 323 0.0 0.0 0.00 0.00 0.00 82 1007.3
20260905041557 63 143 0.0 0.0 0.00 0.00 0.00 86 1008.0
20260905041204 64 65 0.0 0.0 0.00 0.00 0.00 82 1007.4
20260905041053 63 132 0.0 0.0 0.00 0.00 0.00 86 1008.3
20260905040704 64 107 0.0 0.0 0.00 0.00 0.00 82 1007.5
20260905040552 63 161 0.0 0.0 0.00 0.00 0.00 86 1008.3
20260905040051 63 133 0.0 0.0 0.00 0.00 0.00 85 1008.0
20260905035703 65 107 0.0 0.0 0.00 0.00 0.00 82 1007.2
20260905035547 63 102 0.0 0.0 0.00 0.00 0.00 85 1008.0
20260905035203 65 107 0.0 0.0 0.00 0.00 0.00 81 1007.3
20260905035043 64 215 0.0 0.0 0.00 0.00 0.00 85 1008.1
20260905034703 65 107 0.0 0.0 0.00 0.00 0.00 81 1007.2
20260905034539 64 112 0.0 0.0 0.00 0.00 0.00 84 1008.1
20260905034204 65 107 0.0 0.0 0.00 0.00 0.00 81 1007.1
20260905034039 64 123 0.0 0.0 0.00 0.00 0.00 84 1008.0
20260905033703 66 113 0.0 0.0 0.00 0.00 0.00 81 1007.2
20260905033533 64 123 0.0 0.0 0.00 0.00 0.00 83 1007.8
20260905033204 66 126 0.0 0.0 0.00 0.00 0.00 80 1007.2
20260905033029 64 117 0.0 1.0 0.00 0.00 0.00 83 1008.1
20260905032703 66 94 0.0 0.0 0.00 0.00 0.00 80 1007.2
20260905032524 64 141 0.0 0.0 0.00 0.00 0.00 82 1008.0
20260905032203 66 94 0.0 0.0 0.00 0.00 0.00 80 1007.2
20260905032019 65 162 0.0 0.0 0.00 0.00 0.00 82 1008.0
20260905031703 66 94 0.0 0.0 0.00 0.00 0.00 79 1007.2
20260905031515 65 113 0.0 0.0 0.00 0.00 0.00 81 1008.1
20260905031203 67 94 0.0 0.0 0.00 0.00 0.00 79 1007.3
20260905031014 65 113 0.0 0.0 0.00 0.00 0.00 81 1008.0
20260905030509 66 194 0.0 0.0 0.00 0.00 0.00 80 1008.0
20260905030203 67 94 0.0 0.0 0.00 0.00 0.00 78 1007.3
20260905030009 66 116 0.0 0.0 0.00 0.00 0.00 80 1008.1
20260905025703 67 94 0.0 0.0 0.00 0.00 0.00 77 1007.3
20260905025504 66 150 0.0 0.0 0.00 0.00 0.00 79 1008.0
20260905025203 67 94 0.0 0.0 0.00 0.00 0.00 77 1007.2
20260905025000 66 113 0.0 0.0 0.00 0.00 0.00 79 1008.2
20260905024703 67 94 0.0 0.0 0.00 0.00 0.00 77 1007.3
20260905024455 66 112 0.0 0.0 0.00 0.00 0.00 78 1008.1
20260905024203 67 94 0.0 0.0 0.00 0.00 0.00 77 1007.3
20260905023951 66 128 0.0 0.0 0.00 0.00 0.00 77 1008.1
20260905023703 67 94 0.0 0.0 0.00 0.00 0.00 77 1007.4
20260905023451 67 146 0.0 0.0 0.00 0.00 0.00 77 1008.2
20260905023203 67 94 0.0 0.0 0.00 0.00 0.00 77 1007.4
20260905022949 67 140 0.0 0.0 0.00 0.00 0.00 76 1008.3
20260905022703 67 94 0.0 0.0 0.00 0.00 0.00 76 1007.4
20260905022446 67 112 0.0 0.0 0.00 0.00 0.00 75 1008.4
20260905022204 68 94 0.0 0.0 0.00 0.00 0.00 76 1007.4
20260905021941 67 110 0.0 0.0 0.00 0.00 0.00 76 1008.4
20260905021704 68 94 0.0 0.0 0.00 0.00 0.00 76 1007.5
20260905021441 67 104 0.0 0.0 0.00 0.00 0.00 77 1008.7
20260905020936 67 119 0.0 0.0 0.00 0.00 0.00 78 1008.4
20260905020703 68 219 0.0 0.0 0.00 0.00 0.00 75 1007.6
20260905020436 67 133 0.0 0.0 0.00 0.00 0.00 78 1008.5
20260905015935 67 133 0.0 0.0 0.00 0.00 0.00 78 1008.6
20260905015703 68 214 0.0 0.0 0.00 0.00 0.00 75 1007.7
20260905015433 67 143 0.0 0.0 0.00 0.00 0.00 78 1008.3
20260905015204 68 214 0.0 0.0 0.00 0.00 0.00 75 1007.6
20260905014933 67 125 0.0 0.0 0.00 0.00 0.00 76 1008.4
20260905014429 67 125 0.0 0.0 0.00 0.00 0.00 76 1008.4
20260905014204 69 214 0.0 0.0 0.00 0.00 0.00 74 1007.6
20260905013924 67 130 0.0 0.0 0.00 0.00 0.00 76 1008.5
20260905013703 69 214 0.0 0.0 0.00 0.00 0.00 74 1007.7
20260905013420 68 140 0.0 0.0 0.00 0.00 0.00 75 1008.6
20260905013204 69 214 0.0 0.0 0.00 0.00 0.00 74 1007.7
20260905012910 68 136 0.0 0.0 0.00 0.00 0.00 74 1008.6
20260905012703 69 214 0.0 0.0 0.00 0.00 0.00 73 1007.7
20260905012405 68 145 0.0 0.0 0.00 0.00 0.00 73 1008.7
20260905012203 69 214 0.0 0.0 0.00 0.00 0.00 73 1007.7
20260905011902 68 155 0.0 0.0 0.00 0.00 0.00 72 1008.5
20260905011704 69 214 0.0 0.0 0.00 0.00 0.00 73 1007.6
20260905011357 68 147 0.0 0.0 0.00 0.00 0.00 72 1008.5
20260905011203 69 214 0.0 0.0 0.00 0.00 0.00 72 1007.6
20260905010852 69 139 0.0 0.0 0.00 0.00 0.00 71 1008.3
20260905010703 69 214 0.0 0.0 0.00 0.00 0.00 72 1007.6
20260905010347 69 149 0.0 0.0 0.00 0.00 0.00 71 1008.5
20260905010203 69 214 0.0 0.0 0.00 0.00 0.00 72 1007.6
20260905005843 69 131 0.0 2.0 0.00 0.00 0.00 70 1008.4
20260905005339 69 149 1.0 1.0 0.00 0.00 0.00 71 1008.4
20260905004834 69 182 0.0 2.0 0.00 0.00 0.00 70 1008.3
20260905004328 69 143 0.0 0.0 0.00 0.00 0.00 70 1008.3
20260905004204 70 289 0.0 0.0 0.00 0.00 0.00 69 1007.4
20260905003824 69 146 0.0 1.0 0.00 0.00 0.00 70 1008.4
20260905003703 71 309 0.0 0.0 0.00 0.00 0.00 68 1007.4
20260905003320 68 117 0.0 0.0 0.00 0.00 0.00 71 1008.5
20260905003203 71 313 0.0 0.0 0.00 0.00 0.00 68 1007.5
20260905002815 68 177 1.0 1.0 0.00 0.00 0.00 71 1008.5
20260905002703 71 290 0.0 0.0 0.00 0.00 0.00 67 1007.5
20260905002314 68 133 0.0 0.0 0.00 0.00 0.00 71 1008.2
20260905002203 72 254 0.0 0.0 0.00 0.00 0.00 66 1007.5
20260905001809 68 118 0.0 0.0 0.00 0.00 0.00 70 1008.5
20260905001703 72 252 0.0 0.0 0.00 0.00 0.00 66 1007.6
20260905001309 69 125 0.0 0.0 0.00 0.00 0.00 70 1008.5
20260905000805 69 128 0.0 0.0 0.00 0.00 0.00 69 1008.5
20260905000704 73 252 0.0 0.0 0.00 0.00 0.00 65 1007.5
20260905000300 70 131 0.0 0.0 0.00 0.00 0.00 68 1008.4
20260905000204 73 252 0.0 0.0 0.00 0.00 0.00 64 1007.5
20260904235755 70 136 0.0 0.0 0.00 0.00 0.00 67 1008.4
20260904235703 74 252 0.0 0.0 0.00 0.00 0.00 63 1007.4
20260904235249 71 132 0.0 1.0 0.00 0.00 0.00 65 1008.2
20260904235204 75 252 0.0 0.0 0.00 0.00 0.00 61 1007.3
20260904234744 71 146 0.0 1.0 0.00 0.00 0.00 63 1008.2
20260904234704 75 252 0.0 0.0 0.00 0.00 0.00 60 1007.3
20260904234239 72 170 1.0 1.0 0.00 0.00 0.00 61 1008.0
20260904234204 76 358 0.0 0.0 0.00 0.00 0.00 59 1007.3
20260904233735 73 165 0.0 2.0 0.00 0.00 0.00 59 1008.1
20260904233703 77 298 0.0 0.0 0.00 0.00 0.00 58 1007.1
20260904233231 73 24 2.0 2.0 0.00 0.00 0.00 58 1008.0
20260904233204 77 331 0.0 0.0 0.00 0.00 0.00 57 1007.1
20260904232728 74 91 0.0 4.0 0.00 0.00 0.00 57 1007.9
20260904232704 78 335 0.0 0.0 0.00 0.00 0.00 56 1007.1
20260904232224 74 103 0.0 2.0 0.00 0.00 0.00 57 1008.0
20260904232203 79 346 0.0 0.0 0.00 0.00 0.00 54 1007.0
20260904231719 75 141 0.0 0.0 0.00 0.00 0.00 55 1008.0
20260904231704 79 305 0.0 0.0 0.00 0.00 0.00 54 1007.0
20260904231215 75 128 1.0 4.0 0.00 0.00 0.00 55 1007.8
20260904231203 79 313 0.0 0.0 0.00 0.00 0.00 54 1006.9
20260904230709 76 289 1.0 3.0 0.00 0.00 0.00 53 1007.8
20260904230704 79 267 0.0 0.0 0.00 0.00 0.00 54 1006.9